Salida, CO

3:41 PM MDT on June 24, 2017 (GMT -0600)
Salida

Weather History for KANK - December, 2012

Change the Weather History Date:

Sunday, December 9, 2012

  Actual Average (KGUC) Record (KGUC)
Temperature  
Mean Temperature 16 °F -  
Max Temperature 34 °F 26 °F 46 °F (2010)
Min Temperature -1 °F 2 °F -29 °F (2005)
Degree Days  
Heating Degree Days 48    
Moisture  
Dew Point 11 °F    
Average Humidity 80    
Maximum Humidity 92    
Minimum Humidity 56    
Precipitation  
Precipitation 0.00 in - - ()
Sea Level Pressure  
Sea Level Pressure 30.02 in    
Wind  
Wind Speed 10 mph (East)    
Max Wind Speed 20 mph    
Max Gust Speed 32 mph    
Visibility 6 miles    
Events      
Averages and records for this station are not official NWS values.
T = Trace of Precipitation, MM = Missing Value Source: NWS Daily Summary

Daily Weather History Graph

Daily Weather History Graph

Search for Another Location

Airport or City:

Trip Planner

Search our weather history database for the weather conditions in past years. The results will help you decide how hot, cold, wet, or windy it might be!

Date:

Astronomy

Dec. 09, 2012 Rise Set
Actual Time 7:10 AM MST 4:43 PM MST
Civil Twilight 6:40 AM MST 5:12 PM MST
Nautical Twilight 6:07 AM MST 5:45 PM MST
Astronomical Twilight 5:35 AM MST 6:18 PM MST
Moon 2:48 AM MST (12/9) 1:49 PM MST (12/9)
Length of Visible Light 10h 31m
Length of Day
9h 32m
Waning Crescent, 18% of the Moon is Illuminated
Dec 9
Waning Crescent
Dec 13
New
Dec 19
First Quarter
Dec 28
Full
Jan 4
Last Quarter

Hourly Weather History & Observations

Time (MST) Temp. Windchill Dew Point Humidity Pressure Visibility Wind Dir Wind Speed Gust Speed Precip Events Conditions
12:15 AM 34.7 °F 28.1 °F 20.3 °F 56% 29.83 in 10.0 mi SW 8.1 mph 17.3 mph N/A   Overcast
12:35 AM 33.6 °F 26.2 °F 22.5 °F 64% 29.82 in 10.0 mi West 9.2 mph - N/A   Overcast
12:55 AM 34.3 °F 23.9 °F 20.7 °F 57% 29.82 in 10.0 mi West 17.3 mph 27.6 mph N/A   Overcast
1:15 AM 33.8 °F 24.8 °F 20.7 °F 59% 29.82 in 10.0 mi NW 12.7 mph 19.6 mph N/A   Overcast
1:35 AM 27.0 °F 13.5 °F 22.5 °F 83% 29.82 in 5.0 mi North 19.6 mph 32.2 mph N/A   Overcast
1:55 AM 25.9 °F 12.5 °F 23.0 °F 89% 29.84 in 2.0 mi NNW 18.4 mph 21.9 mph N/A   Overcast
2:15 AM 24.8 °F 10.7 °F 22.6 °F 91% 29.84 in 1.0 mi North 19.6 mph 23.0 mph N/A   Overcast
2:35 AM 24.4 °F 13.0 °F 22.1 °F 91% 29.85 in 1.2 mi North 12.7 mph 17.3 mph N/A   Overcast
2:55 AM 23.9 °F 15.0 °F 21.9 °F 92% 29.87 in 1.0 mi NNW 8.1 mph - N/A   Overcast
3:15 AM 23.4 °F 13.5 °F 21.2 °F 91% 29.87 in 1.0 mi North 9.2 mph 17.3 mph N/A   Overcast
3:35 AM 23.0 °F 14.7 °F 20.8 °F 91% 29.88 in 1.2 mi NNW 6.9 mph 16.1 mph N/A   Overcast
3:55 AM 22.6 °F 11.3 °F 20.3 °F 91% 29.88 in 1.5 mi ESE 11.5 mph - N/A   Overcast
4:15 AM 21.6 °F - 18.7 °F 89% 29.88 in 2.0 mi Calm Calm - N/A   Overcast
4:35 AM 21.0 °F 9.9 °F 17.2 °F 85% 29.88 in 2.5 mi ESE 10.4 mph - N/A   Overcast
4:55 AM 20.8 °F 9.7 °F 16.3 °F 83% 29.89 in 5.0 mi SE 10.4 mph 16.1 mph N/A   Overcast
5:15 AM 20.5 °F 9.2 °F 15.8 °F 82% 29.90 in 5.0 mi ESE 10.4 mph 17.3 mph N/A   Overcast
5:35 AM 20.1 °F 10.3 °F 15.8 °F 83% 29.91 in 2.0 mi ESE 8.1 mph 16.1 mph N/A   Overcast
5:55 AM 19.8 °F 9.9 °F 15.8 °F 85% 29.92 in 4.0 mi ESE 8.1 mph - N/A   Overcast
6:15 AM 19.6 °F 8.1 °F 15.6 °F 85% 29.93 in 7.0 mi ESE 10.4 mph - N/A   Overcast
6:35 AM 19.4 °F 7.2 °F 15.3 °F 84% 29.94 in 4.0 mi ESE 11.5 mph 16.1 mph N/A   Overcast
6:55 AM 19.0 °F 7.5 °F 14.9 °F 84% 29.94 in 3.0 mi ESE 10.4 mph 16.1 mph N/A   Overcast
7:15 AM 18.5 °F 7.5 °F 14.9 °F 86% 29.95 in 2.5 mi ESE 9.2 mph 17.3 mph N/A   Overcast
7:35 AM 18.5 °F 8.4 °F 14.9 °F 86% 29.97 in 4.0 mi ESE 8.1 mph - N/A   Overcast
7:55 AM 18.5 °F 7.5 °F 14.7 °F 85% 29.98 in 2.5 mi ESE 9.2 mph 16.1 mph N/A   Overcast
8:15 AM 18.5 °F 6.1 °F 14.9 °F 86% 29.97 in 1.8 mi ESE 11.5 mph - N/A   Overcast
8:35 AM 18.7 °F 10.6 °F 14.9 °F 85% 29.98 in 3.0 mi East 5.8 mph - N/A   Overcast
8:55 AM 18.5 °F 7.5 °F 14.5 °F 85% 29.98 in 10.0 mi ESE 9.2 mph - N/A   Overcast
9:15 AM 18.5 °F 7.5 °F 14.0 °F 83% 29.99 in 10.0 mi ESE 9.2 mph 18.4 mph N/A   Overcast
9:35 AM 18.5 °F 6.1 °F 14.0 °F 83% 30.00 in 3.0 mi East 11.5 mph 18.4 mph N/A   Overcast
9:55 AM 18.0 °F 5.4 °F 13.1 °F 81% 30.01 in 2.5 mi East 11.5 mph 20.7 mph N/A   Overcast
10:15 AM 17.6 °F 4.3 °F 13.3 °F 83% 30.02 in 2.5 mi East 12.7 mph 19.6 mph N/A   Overcast
10:35 AM 18.3 °F 5.2 °F 12.7 °F 79% 30.02 in 7.0 mi East 12.7 mph 19.6 mph N/A   Overcast
10:55 AM 18.7 °F 5.7 °F 12.2 °F 76% 30.02 in 4.0 mi East 12.7 mph 24.2 mph N/A   Overcast
11:15 AM 18.3 °F 4.6 °F 13.8 °F 83% 30.01 in 2.5 mi ESE 13.8 mph - N/A   Overcast
11:35 AM 19.8 °F 7.1 °F 13.1 °F 75% 30.02 in 4.0 mi ESE 12.7 mph 16.1 mph N/A   Overcast
11:55 AM 19.4 °F 8.6 °F 12.0 °F 73% 30.01 in 7.0 mi ESE 9.2 mph 19.6 mph N/A   Overcast
12:15 PM 18.7 °F 6.3 °F 13.3 °F 79% 30.01 in 3.0 mi ESE 11.5 mph 18.4 mph N/A   Overcast
12:35 PM 18.0 °F 6.1 °F 12.7 °F 80% 30.01 in 2.0 mi ESE 10.4 mph 18.4 mph N/A   Overcast
12:55 PM 17.4 °F 7.1 °F 12.0 °F 79% 30.02 in 3.0 mi ESE 8.1 mph - N/A   Overcast
1:15 PM 17.4 °F 6.2 °F 11.8 °F 79% 30.02 in 2.0 mi East 9.2 mph - N/A   Overcast
1:35 PM 16.9 °F 4.8 °F 11.3 °F 79% 30.02 in 4.0 mi ESE 10.4 mph 16.1 mph N/A   Overcast
1:55 PM 16.5 °F 3.6 °F 10.6 °F 77% 30.03 in 4.0 mi East 11.5 mph - N/A   Overcast
2:15 PM 15.8 °F 3.4 °F 10.4 °F 79% 30.04 in 10.0 mi East 10.4 mph - N/A   Overcast
2:35 PM 16.0 °F 4.4 °F 9.0 °F 74% 30.05 in 10.0 mi East 9.2 mph - N/A   Overcast
2:55 PM 16.5 °F 8.1 °F 7.7 °F 68% 30.05 in 10.0 mi ESE 5.8 mph - N/A   Overcast
3:15 PM 16.9 °F 6.4 °F 7.3 °F 66% 30.07 in 10.0 mi East 8.1 mph - N/A   Overcast
3:35 PM 15.8 °F 8.6 °F 8.6 °F 73% 30.08 in 10.0 mi East 4.6 mph - N/A   Overcast
3:55 PM 14.9 °F 5.0 °F 8.6 °F 76% 30.09 in 10.0 mi East 6.9 mph - N/A   Overcast
4:15 PM 14.7 °F 5.9 °F 7.9 °F 74% 30.09 in 10.0 mi East 5.8 mph - N/A   Overcast
4:35 PM 14.9 °F 9.2 °F 8.1 °F 74% 30.10 in 10.0 mi East 3.5 mph - N/A   Overcast
4:55 PM 14.9 °F 7.5 °F 7.7 °F 73% 30.11 in 7.0 mi ESE 4.6 mph - N/A   Overcast
5:15 PM 14.2 °F 6.7 °F 9.3 °F 81% 30.13 in 2.5 mi ESE 4.6 mph - N/A   Overcast
5:35 PM 14.0 °F 5.1 °F 9.3 °F 82% 30.14 in 3.0 mi ESE 5.8 mph - N/A   Overcast
5:55 PM 13.6 °F 4.6 °F 9.9 °F 85% 30.14 in 1.8 mi ESE 5.8 mph - N/A   Overcast
6:15 PM 13.1 °F 5.4 °F 9.7 °F 86% 30.15 in 1.2 mi ESE 4.6 mph - N/A   Overcast
6:35 PM 12.9 °F 3.8 °F 9.5 °F 86% 30.15 in 2.5 mi ESE 5.8 mph - N/A   Overcast
6:55 PM 11.8 °F 5.7 °F 8.4 °F 86% 30.15 in 2.5 mi SE 3.5 mph - N/A   Overcast
7:15 PM 10.9 °F - 7.7 °F 87% 30.16 in 5.0 mi Calm Calm - N/A   Mostly Cloudy
7:35 PM 5.7 °F - 1.9 °F 84% 30.17 in 10.0 mi Calm Calm - N/A   Clear
7:55 PM 3.0 °F -6.4 °F -0.4 °F 86% 30.17 in 10.0 mi West 4.6 mph - N/A   Clear
8:15 PM 7.2 °F -3.0 °F 1.2 °F 77% 30.17 in 7.0 mi West 5.8 mph - N/A   Scattered Clouds
8:35 PM 3.7 °F -10.6 °F -3.6 °F 71% 30.17 in 10.0 mi West 9.2 mph - N/A   Mostly Cloudy
8:55 PM 3.2 °F -10.3 °F -4.5 °F 70% 30.17 in 10.0 mi West 8.1 mph - N/A   Scattered Clouds
9:15 PM 4.6 °F -2.5 °F 0.7 °F 84% 30.17 in 10.0 mi NW 3.5 mph - N/A   Clear
9:35 PM 1.4 °F -8.3 °F -5.1 °F 74% 30.15 in 10.0 mi West 4.6 mph - N/A   Clear
9:55 PM 1.2 °F - -4.5 °F 77% 30.15 in 10.0 mi Calm Calm - N/A   Clear
10:15 PM 0.1 °F -9.7 °F -3.6 °F 84% 30.15 in 10.0 mi NW 4.6 mph - N/A   Clear
10:35 PM -0.4 °F - -4.5 °F 83% 30.13 in 10.0 mi Calm Calm - N/A   Clear
10:55 PM -1.3 °F - -4.9 °F 85% 30.12 in 10.0 mi Calm Calm - N/A   Clear
11:15 PM 0.5 °F -12.3 °F -3.5 °F 83% 30.13 in 10.0 mi NNW 6.9 mph - N/A   Clear
11:35 PM 3.2 °F -6.2 °F -1.3 °F 82% 30.12 in 10.0 mi NW 4.6 mph - N/A   Clear
11:55 PM 0.7 °F -7.1 °F -4.2 °F 80% 30.11 in 10.0 mi West 3.5 mph - N/A   Clear